,,Stat6,,Stat2,,Stat8,,Stat9,,Stat10,,Wind1,,Wind1,
time,status,PA1M_AVG,status,PR1M_SUM,status,RH1M_AVG,status,SR1M_AVG,status,TA1M_AVG,status,W1dAve1m,status,W1sAve1m,
2005-05-30, 00:00:00,VALID,917.494,VALID,0,VALID,100,VALID,-0.118866,VALID,20.0676,VALID,101,VALID,1.36659,
2005-05-30, 00:01:00,VALID,917.485,VALID,0,VALID,100,VALID,-0.101885,VALID,20.0937,VALID,109,VALID,1.03289,
2005-05-30, 00:02:00,VALID,917.486,VALID,0,VALID,100,VALID,-0.101885,VALID,20.0771,VALID,105,VALID,0.71875,
2005-05-30, 00:03:00,VALID,917.466,VALID,0,VALID,100,VALID,-0.0849042,VALID,20.0704,VALID,103,VALID,0.929865,
2005-05-30, 00:04:00,VALID,917.455,VALID,0,VALID,100,VALID,-0.101885,VALID,20.0873,VALID,141,VALID,0.681868,
2005-05-30, 00:05:00,VALID,917.429,VALID,0,VALID,100,VALID,-0.0849042,VALID,20.0733,VALID,127,VALID,0.428354,
2005-05-30, 00:06:00,VALID,917.419,VALID,0,VALID,100,VALID,-0.0849042,VALID,20.0736,VALID,127,VALID,0.93821,
2005-05-30, 00:07:00,VALID,917.4,VALID,0,VALID,100,VALID,-0.0169808,VALID,20.079,VALID,102,VALID,0.782703,
2005-05-30, 00:08:00,VALID,917.386,VALID,0,VALID,100,VALID,0,VALID,20.0691,VALID,118,VALID,0.536399,
2005-05-30, 00:09:00,VALID,917.375,VALID,0,VALID,100,VALID,0.0509425,VALID,20.0629,VALID,119,VALID,0.579613,
2005-05-30, 00:10:00,VALID,917.367,VALID,0,VALID,100,VALID,0.0339617,VALID,20.0338,VALID,130,VALID,0.782315,
2005-05-30, 00:11:00,VALID,917.36,VALID,0,VALID,100,VALID,0.0169808,VALID,20.0077,VALID,111,VALID,1.03159,
2005-05-30, 00:12:00,VALID,917.354,VALID,0,VALID,100,VALID,0.0169808,VALID,19.9951,VALID,116,VALID,0.288872,
2005-05-30, 00:13:00,VALID,917.348,VALID,0,VALID,100,VALID,0.0339617,VALID,19.9792,VALID,110,VALID,0.695131,
2005-05-30, 00:14:00,VALID,917.35,VALID,0,VALID,100,VALID,0.0169808,VALID,19.9658,VALID,103,VALID,1.08784,
2005-05-30, 00:15:00,VALID,917.343,VALID,0,VALID,100,VALID,0.0169808,VALID,19.9496,VALID,135,VALID,1.62726,
2005-05-30, 00:16:00,VALID,917.338,VALID,0,VALID,100,VALID,0.0169808,VALID,19.9399,VALID,133,VALID,1.50819,
2005-05-30, 00:17:00,VALID,917.33,VALID,0,VALID,100,VALID,0.0339617,VALID,19.9238,VALID,122,VALID,1.30983,
2005-05-30, 00:18:00,VALID,917.326,VALID,0,VALID,100,VALID,0.0849042,VALID,19.8975,VALID,136,VALID,1.40716,
2005-05-30, 00:19:00,VALID,917.331,VALID,0,VALID,100,VALID,0.0679233,VALID,19.9111,VALID,137,VALID,1.24966,
2005-05-30, 00:20:00,VALID,917.329,VALID,0,VALID,100,VALID,0.0339617,VALID,19.9009,VALID,147,VALID,1.27131,
2005-05-30, 00:21:00,VALID,917.326,VALID,0,VALID,100,VALID,0.0169808,VALID,19.891,VALID,135,VALID,1.54097,
2005-05-30, 00:22:00,VALID,917.315,VALID,0,VALID,100,VALID,-0.0339617,VALID,19.8833,VALID,136,VALID,1.14139,
2005-05-30, 00:23:00,VALID,917.314,VALID,0,VALID,100,VALID,-0.0849042,VALID,19.8801,VALID,142,VALID,1.4169,
2005-05-30, 00:24:00,VALID,917.308,VALID,0,VALID,100,VALID,-0.101885,VALID,19.8701,VALID,147,VALID,1.60801,
2005-05-30, 00:25:00,VALID,917.293,VALID,0,VALID,100,VALID,-0.0849042,VALID,19.8706,VALID,120,VALID,1.18502,
2005-05-30, 00:26:00,VALID,917.273,VALID,0,VALID,100,VALID,-0.0849042,VALID,19.8744,VALID,150,VALID,1.12051,
2005-05-30, 00:27:00,VALID,917.254,VALID,0,VALID,100,VALID,-0.0509425,VALID,19.8803,VALID,136,VALID,1.24094,
2005-05-30, 00:28:00,VALID,917.244,VALID,0,VALID,100,VALID,-0.101885,VALID,19.8704,VALID,135,VALID,1.14226,
2005-05-30, 00:29:00,VALID,917.226,VALID,0,VALID,100,VALID,-0.0849042,VALID,19.8706,VALID,131,VALID,1.12873,
2005-05-30, 00:30:00,VALID,917.215,VALID,0,VALID,100,VALID,-0.0509425,VALID,19.8513,VALID,124,VALID,1.14953,
2005-05-30, 00:31:00,VALID,917.203,VALID,0,VALID,100,VALID,-0.101885,VALID,19.8416,VALID,131,VALID,1.38717,
2005-05-30, 00:32:00,VALID,917.188,VALID,0,VALID,100,VALID,-0.101885,VALID,19.8423,VALID,128,VALID,1.28252,
2005-05-30, 00:33:00,VALID,917.173,VALID,0,VALID,100,VALID,-0.0509425,VALID,19.8254,VALID,137,VALID,1.42969,
2005-05-30, 00:34:00,VALID,917.15,VALID,0,VALID,100,VALID,-0.0509425,VALID,19.8351,VALID,134,VALID,1.35023,
2005-05-30, 00:35:00,VALID,917.13,VALID,0,VALID,100,VALID,-0.0679233,VALID,19.8289,VALID,132,VALID,0.990916,
2005-05-30, 00:36:00,VALID,917.101,VALID,0,VALID,100,VALID,-0.0509425,VALID,19.809,VALID,138,VALID,0.921317,
2005-05-30, 00:37:00,VALID,917.081,VALID,0,VALID,100,VALID,-0.0169808,VALID,19.8088,VALID,127,VALID,1.08303,
2005-05-30, 00:38:00,VALID,917.065,VALID,0,VALID,100,VALID,0.0169808,VALID,19.7785,VALID,121,VALID,0.84375,
2005-05-30, 00:39:00,VALID,917.045,VALID,0,VALID,100,VALID,0.0339617,VALID,19.7757,VALID,129,VALID,0.6337,
2005-05-30, 00:40:00,VALID,917.028,VALID,0,VALID,100,VALID,0.0339617,VALID,19.7693,VALID,129,VALID,0.720022,
2005-05-30, 00:41:00,VALID,917.021,VALID,0,VALID,100,VALID,0.0339617,VALID,19.737,VALID,120,VALID,0.833891,
2005-05-30, 00:42:00,VALID,917.01,VALID,0,VALID,100,VALID,0.0509425,VALID,19.7335,VALID,124,VALID,0.671875,
2005-05-30, 00:43:00,VALID,917.007,VALID,0,VALID,100,VALID,0.0169808,VALID,19.7238,VALID,136,VALID,1.05412,
2005-05-30, 00:44:00,VALID,916.999,VALID,0,VALID,100,VALID,0.0339617,VALID,19.7139,VALID,133,VALID,1.2166,
2005-05-30, 00:45:00,VALID,916.997,VALID,0,VALID,100,VALID,0.0339617,VALID,19.7107,VALID,129,VALID,1.21875,
2005-05-30, 00:46:00,VALID,916.99,VALID,0,VALID,100,VALID,0.0339617,VALID,19.7171,VALID,139,VALID,1.07177,
2005-05-30, 00:47:00,VALID,916.99,VALID,0,VALID,100,VALID,0.0169808,VALID,19.7104,VALID,146,VALID,1.12043,
2005-05-30, 00:48:00,VALID,916.989,VALID,0,VALID,100,VALID,0.0509425,VALID,19.7141,VALID,135,VALID,1.32369,
2005-05-30, 00:49:00,VALID,917,VALID,0,VALID,100,VALID,0.0509425,VALID,19.7171,VALID,137,VALID,0.958705,
2005-05-30, 00:50:00,VALID,917.004,VALID,0,VALID,100,VALID,0.0169808,VALID,19.7213,VALID,157,VALID,0.80069,
2005-05-30, 00:51:00,VALID,917.006,VALID,0,VALID,100,VALID,0.0169808,VALID,19.7176,VALID,142,VALID,1.25142,
2005-05-30, 00:52:00,VALID,917.017,VALID,0,VALID,100,VALID,0,VALID,19.7209,VALID,146,VALID,1.0125,
2005-05-30, 00:53:00,VALID,917.017,VALID,0,VALID,100,VALID,0,VALID,19.7149,VALID,142,VALID,1.30142,
2005-05-30, 00:54:00,VALID,917.008,VALID,0,VALID,100,VALID,0.0169808,VALID,19.7146,VALID,141,VALID,1.45008,
2005-05-30, 00:55:00,VALID,917.011,VALID,0,VALID,100,VALID,0.0169808,VALID,19.7149,VALID,152,VALID,1.26563,
2005-05-30, 00:56:00,VALID,916.995,VALID,0,VALID,100,VALID,0,VALID,19.7052,VALID,143,VALID,1.31597,
2005-05-30, 00:57:00,VALID,916.983,VALID,0,VALID,100,VALID,0,VALID,19.6953,VALID,155,VALID,1.47958,
2005-05-30, 00:58:00,VALID,916.959,VALID,0,VALID,100,VALID,0.0169808,VALID,19.6826,VALID,154,VALID,1.28688,
2005-05-30, 00:59:00,VALID,916.947,VALID,0,VALID,100,VALID,0,VALID,19.6729,VALID,143,VALID,1.79124,
2005-05-30, 01:00:00,VALID,916.924,VALID,0,VALID,100,VALID,0.0339617,VALID,19.6754,VALID,156,VALID,0.930398,
2005-05-30, 01:01:00,VALID,916.906,VALID,0,VALID,100,VALID,0.0339617,VALID,19.6563,VALID,144,VALID,1.19364,
2005-05-30, 01:02:00,VALID,916.895,VALID,0,VALID,100,VALID,0,VALID,19.66,VALID,139,VALID,1.63472,
2005-05-30, 01:03:00,VALID,916.902,VALID,0,VALID,100,VALID,0.0169808,VALID,19.6436,VALID,145,VALID,1.32143,
2005-05-30, 01:04:00,VALID,916.898,VALID,0,VALID,100,VALID,0.0169808,VALID,19.6339,VALID,144,VALID,0.574574,
2005-05-30, 01:05:00,VALID,916.908,VALID,0,VALID,100,VALID,0,VALID,19.6312,VALID,134,VALID,1.14946,
2005-05-30, 01:06:00,VALID,916.919,VALID,0,VALID,100,VALID,0,VALID,19.6188,VALID,112,VALID,1.24519,
2005-05-30, 01:07:00,VALID,916.927,VALID,0,VALID,100,VALID,0.0169808,VALID,19.6019,VALID,120,VALID,1.24702,
2005-05-30, 01:08:00,VALID,916.93,VALID,0,VALID,100,VALID,0,VALID,19.5957,VALID,121,VALID,1.2351,
2005-05-30, 01:09:00,VALID,916.921,VALID,0,VALID,100,VALID,-0.0169808,VALID,19.5887,VALID,130,VALID,1.33079,
2005-05-30, 01:10:00,VALID,916.911,VALID,0,VALID,100,VALID,-0.0169808,VALID,19.5991,VALID,137,VALID,1.88681,
2005-05-30, 01:11:00,VALID,916.909,VALID,0,VALID,100,VALID,0.0169808,VALID,19.5855,VALID,135,VALID,1.50838,
2005-05-30, 01:12:00,VALID,916.908,VALID,0,VALID,100,VALID,-0.0169808,VALID,19.5892,VALID,131,VALID,1.03627,
2005-05-30, 01:13:00,VALID,916.899,VALID,0,VALID,100,VALID,-0.0339617,VALID,19.5763,VALID,141,VALID,1.43643,
2005-05-30, 01:14:00,VALID,916.898,VALID,0,VALID,100,VALID,0,VALID,19.5664,VALID,130,VALID,1.67791,
2005-05-30, 01:15:00,VALID,916.901,VALID,0,VALID,100,VALID,0,VALID,19.5731,VALID,139,VALID,2.4109,
2005-05-30, 01:16:00,VALID,916.896,VALID,0,VALID,100,VALID,0.0339617,VALID,19.5597,VALID,139,VALID,1.68008,
2005-05-30, 01:17:00,VALID,916.884,VALID,0,VALID,100,VALID,0.0169808,VALID,19.5564,VALID,135,VALID,2.12028,
2005-05-30, 01:18:00,VALID,916.882,VALID,0,VALID,100,VALID,0,VALID,19.547,VALID,138,VALID,2.1875,
2005-05-30, 01:19:00,VALID,916.869,VALID,0,VALID,100,VALID,0,VALID,19.5408,VALID,144,VALID,1.78506,
2005-05-30, 01:20:00,VALID,916.852,VALID,0,VALID,100,VALID,0,VALID,19.5378,VALID,139,VALID,1.77096,
2005-05-30, 01:21:00,VALID,916.858,VALID,0,VALID,100,VALID,0.0169808,VALID,19.5249,VALID,137,VALID,1.78945,
2005-05-30, 01:22:00,VALID,916.867,VALID,0,VALID,100,VALID,0,VALID,19.5144,VALID,144,VALID,1.8577,
2005-05-30, 01:23:00,VALID,916.864,VALID,0,VALID,100,VALID,-0.0169808,VALID,19.4948,VALID,143,VALID,2.09336,
2005-05-30, 01:24:00,VALID,916.859,VALID,0,VALID,100,VALID,-0.0169808,VALID,19.5018,VALID,138,VALID,2.12407,
2005-05-30, 01:25:00,VALID,916.873,VALID,0,VALID,100,VALID,0,VALID,19.499,VALID,132,VALID,1.98903,
2005-05-30, 01:26:00,VALID,916.872,VALID,0,VALID,100,VALID,0,VALID,19.4856,VALID,145,VALID,1.55025,
2005-05-30, 01:27:00,VALID,916.875,VALID,0,VALID,100,VALID,0,VALID,19.4787,VALID,142,VALID,1.48056,
2005-05-30, 01:28:00,VALID,916.86,VALID,0,VALID,100,VALID,-0.0169808,VALID,19.4829,VALID,135,VALID,1.96964,
2005-05-30, 01:29:00,VALID,916.859,VALID,0,VALID,100,VALID,0,VALID,19.4861,VALID,129,VALID,1.82051,
2005-05-30, 01:30:00,VALID,916.859,VALID,0,VALID,100,VALID,0,VALID,19.4623,VALID,129,VALID,1.88239,
2005-05-30, 01:31:00,VALID,916.849,VALID,0,VALID,100,VALID,0,VALID,19.4762,VALID,125,VALID,1.17987,
2005-05-30, 01:32:00,VALID,916.852,VALID,0,VALID,100,VALID,-0.0169808,VALID,19.4665,VALID,132,VALID,1.86555,
2005-05-30, 01:33:00,VALID,916.859,VALID,0,VALID,100,VALID,-0.0169808,VALID,19.4538,VALID,132,VALID,1.78779,
2005-05-30, 01:34:00,VALID,916.864,VALID,0,VALID,100,VALID,-0.0169808,VALID,19.4377,VALID,123,VALID,1.557,
2005-05-30, 01:35:00,VALID,916.859,VALID,0,VALID,100,VALID,-0.0169808,VALID,19.4342,VALID,119,VALID,1.08743,
2005-05-30, 01:36:00,VALID,916.861,VALID,0,VALID,100,VALID,0,VALID,19.4111,VALID,127,VALID,1.34943,
2005-05-30, 01:37:00,VALID,916.855,VALID,0,VALID,100,VALID,0,VALID,19.4119,VALID,123,VALID,1.34165,
2005-05-30, 01:38:00,VALID,916.848,VALID,0,VALID,100,VALID,0,VALID,19.4019,VALID,125,VALID,1.43483,
2005-05-30, 01:39:00,VALID,916.854,VALID,0,VALID,100,VALID,-0.0169808,VALID,19.3893,VALID,118,VALID,1.37173,
2005-05-30, 01:40:00,VALID,916.865,VALID,0,VALID,100,VALID,-0.0339617,VALID,19.3763,VALID,124,VALID,1.65569,
2005-05-30, 01:41:00,VALID,916.864,VALID,0,VALID,100,VALID,0,VALID,19.3662,VALID,138,VALID,1.60527,
2005-05-30, 01:42:00,VALID,916.866,VALID,0,VALID,100,VALID,0,VALID,19.3696,VALID,143,VALID,1.94531,
2005-05-30, 01:43:00,VALID,916.865,VALID,0,VALID,100,VALID,0,VALID,19.3659,VALID,131,VALID,1.71129,
2005-05-30, 01:44:00,VALID,916.871,VALID,0,VALID,100,VALID,0,VALID,19.3629,VALID,135,VALID,1.36055,
2005-05-30, 01:45:00,VALID,916.85,VALID,0,VALID,100,VALID,-0.0169808,VALID,19.3602,VALID,135,VALID,1.49635,
2005-05-30, 01:46:00,VALID,916.842,VALID,0,VALID,100,VALID,0,VALID,19.3632,VALID,129,VALID,1.34286,
2005-05-30, 01:47:00,VALID,916.825,VALID,0,VALID,100,VALID,-0.0169808,VALID,19.3632,VALID,115,VALID,1.16317,
2005-05-30, 01:48:00,VALID,916.805,VALID,0,VALID,100,VALID,-0.0169808,VALID,19.3602,VALID,126,VALID,1.4375,
2005-05-30, 01:49:00,VALID,916.787,VALID,0,VALID,100,VALID,-0.0169808,VALID,19.3632,VALID,123,VALID,1.29059,
2005-05-30, 01:50:00,VALID,916.793,VALID,0,VALID,100,VALID,-0.0339617,VALID,19.3567,VALID,123,VALID,1.35472,
2005-05-30, 01:51:00,VALID,916.791,VALID,0,VALID,100,VALID,-0.0169808,VALID,19.3572,VALID,126,VALID,1.01791,
2005-05-30, 01:52:00,VALID,916.8,VALID,0,VALID,100,VALID,-0.101885,VALID,19.3614,VALID,131,VALID,1.29483,
2005-05-30, 01:53:00,VALID,916.804,VALID,0,VALID,100,VALID,-0.101885,VALID,19.3651,VALID,124,VALID,1.54415,
2005-05-30, 01:54:00,VALID,916.812,VALID,0,VALID,100,VALID,-0.135847,VALID,19.3686,VALID,133,VALID,1.50153,
2005-05-30, 01:55:00,VALID,916.813,VALID,0,VALID,100,VALID,-0.135847,VALID,19.3815,VALID,142,VALID,1.42483,
2005-05-30, 01:56:00,VALID,916.821,VALID,0,VALID,100,VALID,-0.118866,VALID,19.3808,VALID,126,VALID,1.15662,
2005-05-30, 01:57:00,VALID,916.817,VALID,0,VALID,100,VALID,-0.152827,VALID,19.388,VALID,126,VALID,1.24814,
2005-05-30, 01:58:00,VALID,916.813,VALID,0,VALID,100,VALID,-0.135847,VALID,19.3813,VALID,131,VALID,1.4444,
2005-05-30, 01:59:00,VALID,916.814,VALID,0,VALID,100,VALID,-0.101885,VALID,19.3684,VALID,138,VALID,1.41387,
2005-05-30, 02:00:00,VALID,916.814,VALID,0,VALID,100,VALID,-0.101885,VALID,19.3649,VALID,127,VALID,0.761265,
2005-05-30, 02:01:00,VALID,916.804,VALID,0,VALID,100,VALID,-0.118866,VALID,19.3589,VALID,134,VALID,1.23165,
2005-05-30, 02:02:00,VALID,916.801,VALID,0,VALID,100,VALID,-0.101885,VALID,19.3495,VALID,135,VALID,1.04587,
2005-05-30, 02:03:00,VALID,916.788,VALID,0,VALID,100,VALID,-0.101885,VALID,19.3361,VALID,133,VALID,1.24291,
2005-05-30, 02:04:00,VALID,916.777,VALID,0,VALID,100,VALID,-0.101885,VALID,19.3256,VALID,131,VALID,0.880335,
2005-05-30, 02:05:00,VALID,916.759,VALID,0,VALID,100,VALID,-0.0849042,VALID,19.3224,VALID,121,VALID,1.20145,
2005-05-30, 02:06:00,VALID,916.756,VALID,0,VALID,100,VALID,-0.101885,VALID,19.3097,VALID,131,VALID,0.986607,
2005-05-30, 02:07:00,VALID,916.727,VALID,0,VALID,100,VALID,-0.0339617,VALID,19.3125,VALID,132,VALID,1.05729,
2005-05-30, 02:08:00,VALID,916.722,VALID,0,VALID,100,VALID,-0.0339617,VALID,19.2924,VALID,128,VALID,1.43472,
2005-05-30, 02:09:00,VALID,916.701,VALID,0,VALID,100,VALID,-0.0169808,VALID,19.2961,VALID,129,VALID,1.39807,
2005-05-30, 02:10:00,VALID,916.693,VALID,0,VALID,100,VALID,0,VALID,19.2993,VALID,131,VALID,1.62791,
2005-05-30, 02:11:00,VALID,916.676,VALID,0,VALID,100,VALID,-0.0169808,VALID,19.2954,VALID,132,VALID,2.19354,
2005-05-30, 02:12:00,VALID,916.667,VALID,0,VALID,100,VALID,0,VALID,19.3217,VALID,129,VALID,1.6532,
2005-05-30, 02:13:00,VALID,916.659,VALID,0,VALID,100,VALID,0,VALID,19.3378,VALID,138,VALID,1.89595,
2005-05-30, 02:14:00,VALID,916.668,VALID,0,VALID,100,VALID,-0.0169808,VALID,19.3376,VALID,131,VALID,2.00457,
2005-05-30, 02:15:00,VALID,916.665,VALID,0,VALID,100,VALID,0.0169808,VALID,19.3535,VALID,129,VALID,2.02976,
2005-05-30, 02:16:00,VALID,916.671,VALID,0,VALID,100,VALID,-0.0169808,VALID,19.3604,VALID,132,VALID,1.23926,
2005-05-30, 02:17:00,VALID,916.67,VALID,0,VALID,100,VALID,0,VALID,19.3634,VALID,126,VALID,1.07107,
2005-05-30, 02:18:00,VALID,916.663,VALID,0,VALID,100,VALID,0,VALID,19.354,VALID,130,VALID,0.78853,
2005-05-30, 02:19:00,VALID,916.65,VALID,0,VALID,100,VALID,0,VALID,19.3376,VALID,118,VALID,1.37462,
2005-05-30, 02:20:00,VALID,916.645,VALID,0,VALID,100,VALID,0,VALID,19.3279,VALID,120,VALID,1.00213,
2005-05-30, 02:21:00,VALID,916.643,VALID,0,VALID,100,VALID,0,VALID,19.3247,VALID,126,VALID,1.24181,
2005-05-30, 02:22:00,VALID,916.623,VALID,0,VALID,100,VALID,-0.0169808,VALID,19.3217,VALID,118,VALID,1.21512,
2005-05-30, 02:23:00,VALID,916.619,VALID,0,VALID,100,VALID,0,VALID,19.3182,VALID,127,VALID,0.920703,
2005-05-30, 02:24:00,VALID,916.621,VALID,0,VALID,100,VALID,-0.0169808,VALID,19.3185,VALID,133,VALID,0.653125,
2005-05-30, 02:25:00,VALID,916.622,VALID,0,VALID,100,VALID,-0.0169808,VALID,19.3152,VALID,103,VALID,1.30069,
2005-05-30, 02:26:00,VALID,916.623,VALID,0,VALID,100,VALID,0,VALID,19.309,VALID,103,VALID,1.21555,
2005-05-30, 02:27:00,VALID,916.619,VALID,0,VALID,100,VALID,0,VALID,19.3152,VALID,111,VALID,1.15086,
2005-05-30, 02:28:00,VALID,916.635,VALID,0,VALID,100,VALID,-0.0169808,VALID,19.3026,VALID,135,VALID,0.807049,
2005-05-30, 02:29:00,VALID,916.658,VALID,0,VALID,100,VALID,-0.0339617,VALID,19.2832,VALID,136,VALID,0.811806,
2005-05-30, 02:30:00,VALID,916.661,VALID,0,VALID,100,VALID,-0.0169808,VALID,19.2633,VALID,130,VALID,0.873047,
2005-05-30, 02:31:00,VALID,916.652,VALID,0,VALID,100,VALID,0.0339617,VALID,19.2636,VALID,122,VALID,0.93657,
2005-05-30, 02:32:00,VALID,916.637,VALID,0,VALID,100,VALID,0,VALID,19.2504,VALID,120,VALID,1.32813,
2005-05-30, 02:33:00,VALID,916.631,VALID,0,VALID,100,VALID,0,VALID,19.2435,VALID,133,VALID,1.64329,
2005-05-30, 02:34:00,VALID,916.62,VALID,0,VALID,100,VALID,-0.0169808,VALID,19.2477,VALID,128,VALID,1.33389,
2005-05-30, 02:35:00,VALID,916.616,VALID,0,VALID,100,VALID,0,VALID,19.2343,VALID,133,VALID,1.22111,
2005-05-30, 02:36:00,VALID,916.592,VALID,0,VALID,100,VALID,0,VALID,19.2278,VALID,133,VALID,1.49805,
2005-05-30, 02:37:00,VALID,916.592,VALID,0,VALID,100,VALID,0,VALID,19.2186,VALID,138,VALID,0.805903,
2005-05-30, 02:38:00,VALID,916.56,VALID,0,VALID,100,VALID,-0.0339617,VALID,19.2154,VALID,126,VALID,1.30246,
2005-05-30, 02:39:00,VALID,916.561,VALID,0,VALID,100,VALID,-0.0169808,VALID,19.2221,VALID,117,VALID,0.849516,
2005-05-30, 02:40:00,VALID,916.557,VALID,0,VALID,100,VALID,0,VALID,19.2156,VALID,100,VALID,1.14499,
2005-05-30, 02:41:00,VALID,916.547,VALID,0,VALID,100,VALID,0,VALID,19.2122,VALID,110,VALID,1.11261,
2005-05-30, 02:42:00,VALID,916.537,VALID,0,VALID,100,VALID,0,VALID,19.2087,VALID,124,VALID,0.630335,
2005-05-30, 02:43:00,VALID,916.51,VALID,0,VALID,100,VALID,0,VALID,19.2087,VALID,114,VALID,0.816592,
2005-05-30, 02:44:00,VALID,916.499,VALID,0,VALID,100,VALID,0,VALID,19.2057,VALID,118,VALID,0.629092,
2005-05-30, 02:45:00,VALID,916.507,VALID,0,VALID,100,VALID,-0.0169808,VALID,19.1861,VALID,98,VALID,0.668636,
2005-05-30, 02:46:00,VALID,916.499,VALID,0,VALID,100,VALID,0,VALID,19.1863,VALID,109,VALID,0.667683,
2005-05-30, 02:47:00,VALID,916.5,VALID,0,VALID,100,VALID,-0.0169808,VALID,19.1598,VALID,117,VALID,1.03817,
2005-05-30, 02:48:00,VALID,916.5,VALID,0,VALID,100,VALID,-0.0169808,VALID,19.1575,VALID,132,VALID,1.07158,
2005-05-30, 02:49:00,VALID,916.504,VALID,0,VALID,100,VALID,0,VALID,19.161,VALID,133,VALID,1.32366,
2005-05-30, 02:50:00,VALID,916.499,VALID,0,VALID,100,VALID,0,VALID,19.1769,VALID,122,VALID,1.33703,
2005-05-30, 02:51:00,VALID,916.485,VALID,0,VALID,100,VALID,-0.0339617,VALID,19.1866,VALID,136,VALID,1.59993,
2005-05-30, 02:52:00,VALID,916.492,VALID,0,VALID,100,VALID,0.0169808,VALID,19.1891,VALID,136,VALID,1.66406,
2005-05-30, 02:53:00,VALID,916.492,VALID,0,VALID,100,VALID,0.0169808,VALID,19.1891,VALID,132,VALID,1.53445,
2005-05-30, 02:54:00,VALID,916.482,VALID,0,VALID,100,VALID,0.0169808,VALID,19.1759,VALID,135,VALID,1.23605,
2005-05-30, 02:55:00,VALID,916.473,VALID,0,VALID,100,VALID,0,VALID,19.1699,VALID,132,VALID,1.6622,
2005-05-30, 02:56:00,VALID,916.451,VALID,0,VALID,100,VALID,0,VALID,19.1603,VALID,135,VALID,1.67715,
2005-05-30, 02:57:00,VALID,916.446,VALID,0,VALID,100,VALID,0.0169808,VALID,19.1739,VALID,132,VALID,1.75309,
2005-05-30, 02:58:00,VALID,916.427,VALID,0,VALID,100,VALID,0,VALID,19.1573,VALID,123,VALID,1.17168,
2005-05-30, 02:59:00,VALID,916.403,VALID,0,VALID,100,VALID,0,VALID,19.1573,VALID,129,VALID,1.67614,
2005-05-30, 03:00:00,VALID,916.405,VALID,0,VALID,100,VALID,0,VALID,19.1506,VALID,141,VALID,1.54004,
2005-05-30, 03:01:00,VALID,916.397,VALID,0,VALID,100,VALID,0,VALID,19.1409,VALID,131,VALID,0.944425,
2005-05-30, 03:02:00,VALID,916.391,VALID,0,VALID,100,VALID,0.0169808,VALID,19.1339,VALID,149,VALID,1.38139,
2005-05-30, 03:03:00,VALID,916.384,VALID,0,VALID,100,VALID,-0.0169808,VALID,19.1312,VALID,150,VALID,0.934549,
2005-05-30, 03:04:00,VALID,916.385,VALID,0,VALID,100,VALID,0,VALID,19.1314,VALID,140,VALID,1.48723,
2005-05-30, 03:05:00,VALID,916.383,VALID,0,VALID,100,VALID,0,VALID,19.1317,VALID,141,VALID,1.75035,
2005-05-30, 03:06:00,VALID,916.358,VALID,0,VALID,100,VALID,0.0169808,VALID,19.1284,VALID,142,VALID,1.26544,
2005-05-30, 03:07:00,VALID,916.345,VALID,0,VALID,100,VALID,0.0339617,VALID,19.1312,VALID,132,VALID,0.830793,
2005-05-30, 03:08:00,VALID,916.334,VALID,0,VALID,100,VALID,0.118866,VALID,19.091,VALID,118,VALID,1.03125,
2005-05-30, 03:09:00,VALID,916.33,VALID,0,VALID,100,VALID,0.101885,VALID,19.0945,VALID,130,VALID,1.56534,
2005-05-30, 03:10:00,VALID,916.331,VALID,0,VALID,100,VALID,0.101885,VALID,19.0915,VALID,132,VALID,1.02716,
2005-05-30, 03:11:00,VALID,916.319,VALID,0,VALID,100,VALID,0.0849042,VALID,19.082,VALID,122,VALID,1.23289,
2005-05-30, 03:12:00,VALID,916.309,VALID,0,VALID,100,VALID,0.101885,VALID,19.062,VALID,130,VALID,1.55966,
2005-05-30, 03:13:00,VALID,916.311,VALID,0,VALID,100,VALID,0.0849042,VALID,19.0592,VALID,122,VALID,1.55105,
2005-05-30, 03:14:00,VALID,916.296,VALID,0,VALID,100,VALID,0.101885,VALID,19.0495,VALID,127,VALID,1.45422,
2005-05-30, 03:15:00,VALID,916.302,VALID,0,VALID,100,VALID,0.118866,VALID,19.0426,VALID,138,VALID,1.98493,
2005-05-30, 03:16:00,VALID,916.296,VALID,0,VALID,100,VALID,0.101885,VALID,19.0197,VALID,135,VALID,1.35374,
2005-05-30, 03:17:00,VALID,916.29,VALID,0,VALID,100,VALID,0.101885,VALID,19.0071,VALID,143,VALID,1.50781,
2005-05-30, 03:18:00,VALID,916.281,VALID,0,VALID,100,VALID,0.135847,VALID,18.9875,VALID,150,VALID,1.49836,
2005-05-30, 03:19:00,VALID,916.27,VALID,0,VALID,100,VALID,0.101885,VALID,18.9746,VALID,149,VALID,1.66292,
2005-05-30, 03:20:00,VALID,916.257,VALID,0,VALID,100,VALID,0.0849042,VALID,18.9686,VALID,147,VALID,0.715701,
2005-05-30, 03:21:00,VALID,916.253,VALID,0,VALID,100,VALID,0.101885,VALID,18.9653,VALID,155,VALID,1.37198,
2005-05-30, 03:22:00,VALID,916.242,VALID,0,VALID,100,VALID,0.0339617,VALID,18.9601,VALID,145,VALID,1.17351,
2005-05-30, 03:23:00,VALID,916.22,VALID,0,VALID,100,VALID,0,VALID,18.9479,VALID,137,VALID,1.39416,
2005-05-30, 03:24:00,VALID,916.197,VALID,0,VALID,100,VALID,-0.0169808,VALID,18.9414,VALID,145,VALID,1.50651,
2005-05-30, 03:25:00,VALID,916.181,VALID,0,VALID,100,VALID,0,VALID,18.935,VALID,138,VALID,1.8782,
2005-05-30, 03:26:00,VALID,916.15,VALID,0,VALID,100,VALID,0,VALID,18.9183,VALID,141,VALID,1.39347,
2005-05-30, 03:27:00,VALID,916.12,VALID,0,VALID,100,VALID,0,VALID,18.9186,VALID,142,VALID,1.19792,
2005-05-30, 03:28:00,VALID,916.107,VALID,0,VALID,100,VALID,-0.0169808,VALID,18.9024,VALID,142,VALID,1.18332,
2005-05-30, 03:29:00,VALID,916.111,VALID,0,VALID,100,VALID,-0.0169808,VALID,18.9057,VALID,124,VALID,0.975675,
2005-05-30, 03:30:00,VALID,916.111,VALID,0,VALID,100,VALID,0,VALID,18.8962,VALID,126,VALID,1.48233,
2005-05-30, 03:31:00,VALID,916.102,VALID,0,VALID,100,VALID,0,VALID,18.9089,VALID,142,VALID,1.51797,
2005-05-30, 03:32:00,VALID,916.103,VALID,0,VALID,100,VALID,0,VALID,18.9057,VALID,146,VALID,1.12686,
2005-05-30, 03:33:00,VALID,916.095,VALID,0,VALID,100,VALID,0,VALID,18.8923,VALID,143,VALID,0.903888,
2005-05-30, 03:34:00,VALID,916.084,VALID,0,VALID,100,VALID,-0.0169808,VALID,18.9027,VALID,133,VALID,0.870808,
2005-05-30, 03:35:00,VALID,916.07,VALID,0,VALID,100,VALID,0,VALID,18.8895,VALID,106,VALID,0.571023,
2005-05-30, 03:36:00,VALID,916.068,VALID,0,VALID,100,VALID,0.0169808,VALID,18.8801,VALID,100,VALID,0.678516,
2005-05-30, 03:37:00,VALID,916.067,VALID,0,VALID,100,VALID,0,VALID,18.8605,VALID,96,VALID,0.705729,
2005-05-30, 03:38:00,VALID,916.061,VALID,0,VALID,100,VALID,-0.0169808,VALID,18.8476,VALID,113,VALID,0.668155,
2005-05-30, 03:39:00,VALID,916.057,VALID,0,VALID,100,VALID,0,VALID,18.8178,VALID,113,VALID,0.398801,
2005-05-30, 03:40:00,VALID,916.055,VALID,0,VALID,100,VALID,-0.0339617,VALID,18.8019,VALID,110,VALID,0.915551,
2005-05-30, 03:41:00,VALID,916.048,VALID,0,VALID,100,VALID,0,VALID,18.8026,VALID,123,VALID,0.92359,
2005-05-30, 03:42:00,VALID,916.055,VALID,0,VALID,100,VALID,0,VALID,18.8088,VALID,123,VALID,0.675876,